FW2259 Weather Reports


time (UTC)temp
F
wind
direction
speed
knots
gust
knots
rain 1hr
in
rain 24hr
in
rain mn
in
humidity
%
barometer
mb
20260503053046 48 253 0.0 0.9 0.00 0.00 0.00 90 1020.9
20260503051550 46 253 0.0 0.0 0.00 0.00 0.00 93 1020.9
20260503050042 44 253 0.0 0.0 0.00 0.00 0.00 94 1021.0
20260503044541 42 253 0.0 0.0 0.00 0.00 0.00 94 1020.9
20260503043041 41 253 0.0 0.0 0.00 0.00 0.00 94 1020.9
20260503041541 40 253 0.0 0.0 0.00 0.00 0.00 93 1020.9
20260503040040 40 253 0.0 0.0 0.00 0.00 0.00 93 1020.9
20260503034537 40 253 0.0 0.0 0.00 0.00 0.00 93 1020.8
20260503033043 41 253 0.0 0.0 0.00 0.00 0.00 93 1020.8
20260503031535 41 253 0.0 0.0 0.00 0.00 0.00 93 1020.9
20260503030034 41 253 0.0 0.0 0.00 0.00 0.00 93 1020.9
20260503024532 41 253 0.0 0.0 0.00 0.00 0.00 93 1020.9
20260503023030 42 253 0.0 0.0 0.00 0.00 0.00 92 1020.9
20260503021529 42 253 0.0 0.0 0.00 0.00 0.00 92 1021.1
20260503020027 43 253 0.0 0.0 0.00 0.00 0.00 93 1021.2
20260503014540 43 253 0.0 0.0 0.00 0.00 0.00 92 1021.1
20260503013025 43 253 0.0 0.0 0.00 0.00 0.00 92 1021.1
20260503011522 44 253 0.0 0.9 0.00 0.00 0.00 92 1021.3
20260503010021 44 253 0.0 0.9 0.00 0.00 0.00 91 1021.3
20260503004525 44 253 0.0 0.0 0.00 0.00 0.00 90 1021.4
20260503003015 45 253 0.0 0.0 0.00 0.00 0.00 91 1021.4
20260503001514 45 253 0.0 0.0 0.00 0.00 0.00 91 1021.6
20260503000012 46 253 0.0 0.0 0.00 0.00 0.00 90 1021.6
20260502234509 46 253 0.0 0.0 0.00 0.00 0.00 89 1021.7
20260502233010 47 253 0.0 0.0 0.00 0.00 0.00 89 1021.8
20260502231505 47 253 0.0 0.0 0.00 0.00 0.00 87 1021.9
20260502230003 48 253 0.0 0.0 0.00 0.00 0.00 87 1021.9
20260502224616 49 253 0.0 0.0 0.00 0.00 0.00 86 1022.0
20260502223057 49 253 0.0 0.0 0.00 0.00 0.00 85 1022.0
20260502221556 51 253 0.0 1.7 0.00 0.00 0.00 84 1021.9
20260502220053 50 253 0.0 0.0 0.00 0.00 0.00 84 1022.0
20260502214552 51 253 0.0 0.0 0.00 0.00 0.00 82 1021.9
20260502213108 52 253 0.0 0.9 0.00 0.00 0.00 83 1021.9
20260502211613 52 253 0.0 0.9 0.00 0.00 0.00 82 1021.8
20260502210051 52 253 0.0 0.9 0.00 0.00 0.00 80 1021.8
20260502204550 52 253 0.0 0.0 0.00 0.00 0.00 79 1021.8
20260502203057 53 253 0.0 0.0 0.00 0.00 0.00 77 1021.9
20260502201556 55 253 0.0 0.9 0.00 0.00 0.00 75 1021.8
20260502200051 56 253 0.0 0.9 0.00 0.00 0.00 72 1021.8
20260502194600 57 253 0.0 0.9 0.00 0.00 0.00 71 1021.7
20260502193048 58 253 0.0 0.9 0.00 0.00 0.00 70 1021.6
20260502191549 59 253 0.0 1.7 0.00 0.00 0.00 67 1021.5
20260502190048 61 253 0.0 1.7 0.00 0.00 0.00 64 1021.4
20260502184554 62 253 0.9 5.2 0.00 0.00 0.00 62 1021.2
20260502183057 62 215 0.0 0.9 0.00 0.00 0.00 62 1020.9
20260502181547 63 211 0.0 1.7 0.00 0.00 0.00 60 1020.8
20260502163049 73 163 0.0 4.3 0.00 0.00 0.00 39 1020.7
20260502161542 74 131 0.0 5.2 0.00 0.00 0.00 37 1020.8
20260502151538 75 147 1.7 6.1 0.00 0.00 0.00 35 1021.2
20260502123015 73 17 3.5 6.1 0.00 0.00 0.00 36 1023.6
20260502121512 72 154 0.9 5.2 0.00 0.00 0.00 37 1023.8
20260502114505 71 319 0.9 7.0 0.00 0.00 0.00 39 1024.0
20260502113002 71 213 3.5 6.1 0.00 0.00 0.00 38 1024.3
20260502111559 70 223 1.7 5.2 0.00 0.00 0.00 40 1024.6
20260502110058 71 253 0.0 3.5 0.00 0.00 0.00 40 1024.8
20260502104556 71 159 1.7 4.3 0.00 0.00 0.00 37 1025.0
20260502103053 70 228 1.7 6.1 0.00 0.00 0.00 42 1025.1
20260502101618 69 205 0.9 4.3 0.00 0.00 0.00 40 1025.4
20260502071514 53 188 0.0 2.6 0.00 0.00 0.00 73 1027.6
20260502070017 50 155 0.9 4.3 0.00 0.00 0.00 75 1027.8
20260502064513 50 194 1.7 4.3 0.00 0.00 0.00 76 1027.9
20260502063007 48 236 0.0 3.5 0.00 0.00 0.00 78 1028.0
20260502061505 47 124 0.0 0.0 0.00 0.00 0.00 81 1028.1
20260502060008 46 123 0.0 0.0 0.00 0.00 0.00 83 1028.2
20260502054559 44 123 0.0 0.0 0.00 0.00 0.00 87 1028.3